Location: Palau
(42.3086°N, 3.1507°E)
Time: 21:40:10
(UTC+00:00)

STARLINK-1364 - Pass Details

Date: 26 May 2020
Orbit: 379 x 380 km, 53.0° (Epoch: 04 July)

Event Time Altitude Azimuth Distance (km) Brightness Sun altitude
Exits shadow 02:23:17 39° 270° (W) 582 3.4 -16.7°
Maximum altitude 02:24:08 57° 326° (NW) 455 3.2 -16.6°
Drops below altitude 10° 02:27:14 10° 47° (NE) 1,402 7.0 -16.2°
Sets 02:29:18 0° 51° (NE) 2,258 8.4 -16.0°
